• în România
  • Lista ţărilor
  • Pe 7 zile
  • Temperatura apei
  • Hartă satelitară
  • Meteo pe hartă
  • Widget-uri
  • user-avatar
    Intrare

    Meteo pe oră la Adelaide

    Astăzi, 15 Decembrie, Vineri

    Timp Temperatura Precipitaţii Vânt Presiune Umiditate
    00:00 +16°C° 0 mm 3 m/s 756 mmHg 74%
    01:00 +16°C° 0 mm 2 m/s 756 mmHg 75%
    02:00 +16°C° 0 mm 2 m/s 756 mmHg 76%
    03:00 +15°C° 0 mm 2 m/s 755 mmHg 78%
    04:00 +16°C° 0 mm 1 m/s 756 mmHg 75%
    05:00 +16°C° 0 mm 1 m/s 756 mmHg 72%
    06:00 +18°C° 0 mm 1 m/s 756 mmHg 69%
    07:00 +20°C° 0 mm 1 m/s 756 mmHg 60%
    08:00 +22°C° 0 mm 1 m/s 756 mmHg 52%
    09:00 +24°C° 0 mm 1 m/s 756 mmHg 46%
    10:00 +25°C° 0 mm 2 m/s 756 mmHg 43%
    11:00 +26°C° 0 mm 3 m/s 755 mmHg 41%
    12:00 +27°C° 0 mm 3 m/s 755 mmHg 39%
    13:00 +27°C° 0 mm 4 m/s 755 mmHg 38%
    14:00 +27°C° 0 mm 4 m/s 754 mmHg 38%
    15:00 +26°C° 0 mm 4 m/s 754 mmHg 41%
    16:00 +25°C° 0 mm 4 m/s 754 mmHg 42%
    17:00 +23°C° 0 mm 4 m/s 755 mmHg 44%
    18:00 +23°C° 0 mm 4 m/s 755 mmHg 46%
    19:00 +21°C° 0 mm 4 m/s 755 mmHg 51%
    20:00 +20°C° 0 mm 4 m/s 756 mmHg 56%
    21:00 +19°C° 0 mm 3 m/s 756 mmHg 61%
    22:00 +18°C° 0 mm 3 m/s 756 mmHg 64%
    23:00 +18°C° 0 mm 3 m/s 756 mmHg 67%

    Mâine, 16 Decembrie, Sâmbătă

    Timp Temperatura Precipitaţii Vânt Presiune Umiditate
    00:00 +17°C° 0 mm 2 m/s 757 mmHg 71%
    01:00 +17°C° 0 mm 2 m/s 757 mmHg 73%
    02:00 +17°C° 0 mm 2 m/s 757 mmHg 76%
    03:00 +16°C° 0 mm 2 m/s 757 mmHg 78%
    04:00 +17°C° 0 mm 2 m/s 757 mmHg 77%
    05:00 +17°C° 0 mm 2 m/s 757 mmHg 76%
    06:00 +18°C° 0 mm 2 m/s 758 mmHg 74%
    07:00 +20°C° 0 mm 2 m/s 758 mmHg 65%
    08:00 +23°C° 0 mm 2 m/s 758 mmHg 56%
    09:00 +24°C° 0 mm 2 m/s 758 mmHg 47%
    10:00 +26°C° 0 mm 2 m/s 758 mmHg 43%
    11:00 +27°C° 0 mm 2 m/s 757 mmHg 39%
    12:00 +28°C° 0 mm 3 m/s 757 mmHg 35%
    13:00 +29°C° 0 mm 3 m/s 757 mmHg 35%
    14:00 +29°C° 0 mm 4 m/s 756 mmHg 36%
    15:00 +29°C° 0 mm 4 m/s 756 mmHg 36%
    16:00 +28°C° 0 mm 5 m/s 756 mmHg 40%
    17:00 +26°C° 0 mm 5 m/s 756 mmHg 44%
    18:00 +25°C° 0 mm 5 m/s 756 mmHg 48%
    19:00 +23°C° 0 mm 5 m/s 757 mmHg 52%
    20:00 +21°C° 0 mm 5 m/s 757 mmHg 57%
    21:00 +20°C° 0 mm 5 m/s 757 mmHg 61%
    22:00 +20°C° 0 mm 5 m/s 757 mmHg 63%
    23:00 +19°C° 0 mm 5 m/s 757 mmHg 65%

    Poimâine, 17 Decembrie, Duminică

    Timp Temperatura Precipitaţii Vânt Presiune Umiditate
    00:00 +19°C° 0 mm 4 m/s 757 mmHg 67%
    01:00 +19°C° 0 mm 4 m/s 756 mmHg 67%
    02:00 +19°C° 0 mm 4 m/s 756 mmHg 68%
    03:00 +18°C° 0 mm 3 m/s 755 mmHg 68%
    04:00 +19°C° 0 mm 3 m/s 755 mmHg 66%
    05:00 +20°C° 0 mm 4 m/s 755 mmHg 64%
    06:00 +21°C° 0 mm 4 m/s 756 mmHg 61%
    07:00 +23°C° 0 mm 4 m/s 755 mmHg 52%
    08:00 +27°C° 0 mm 4 m/s 755 mmHg 43%
    09:00 +30°C° 0 mm 4 m/s 755 mmHg 33%
    10:00 +33°C° 0 mm 4 m/s 755 mmHg 29%
    11:00 +35°C° 0 mm 3 m/s 754 mmHg 25%
    12:00 +37°C° 0 mm 3 m/s 754 mmHg 21%
    13:00 +37°C° 0 mm 3 m/s 753 mmHg 20%
    14:00 +38°C° 0 mm 2 m/s 753 mmHg 19%
    15:00 +38°C° 0 mm 2 m/s 752 mmHg 19%
    16:00 +38°C° 0 mm 2 m/s 752 mmHg 20%
    17:00 +37°C° 0 mm 3 m/s 751 mmHg 20%
    18:00 +37°C° 0 mm 3 m/s 751 mmHg 21%
    19:00 +36°C° 0 mm 3 m/s 751 mmHg 21%
    20:00 +35°C° 0 mm 3 m/s 751 mmHg 21%
    21:00 +34°C° 0 mm 4 m/s 751 mmHg 20%
    22:00 +33°C° 0,1 mm 3 m/s 751 mmHg 21%
    23:00 +33°C° 0,1 mm 3 m/s 751 mmHg 21%

    18 Decembrie, Luni

    Timp Temperatura Precipitaţii Vânt Presiune Umiditate
    00:00 +31°C° 0,1 mm 2 m/s 751 mmHg 21%
    01:00 +31°C° 0,1 mm 3 m/s 751 mmHg 23%
    02:00 +30°C° 0,1 mm 3 m/s 750 mmHg 24%
    03:00 +30°C° 0,1 mm 4 m/s 750 mmHg 25%
    04:00 +30°C° 0,1 mm 4 m/s 750 mmHg 25%
    05:00 +32°C° 0,1 mm 5 m/s 750 mmHg 24%
    06:00 +32°C° 0,1 mm 6 m/s 750 mmHg 24%
    07:00 +33°C° 0,3 mm 7 m/s 750 mmHg 22%
    08:00 +35°C° 0,3 mm 8 m/s 750 mmHg 21%
    09:00 +37°C° 0,3 mm 9 m/s 750 mmHg 19%
    10:00 +39°C° 0 mm 8 m/s 749 mmHg 18%
    11:00 +41°C° 0 mm 7 m/s 748 mmHg 16%
    12:00 +44°C° 0 mm 7 m/s 747 mmHg 14%
    13:00 +44°C° 0,1 mm 6 m/s 746 mmHg 14%
    14:00 +44°C° 0,1 mm 6 m/s 745 mmHg 14%
    15:00 +43°C° 0,1 mm 5 m/s 744 mmHg 14%
    16:00 +41°C° 0,5 mm 4 m/s 744 mmHg 21%
    17:00 +37°C° 0,5 mm 4 m/s 744 mmHg 28%
    18:00 +35°C° 0,5 mm 3 m/s 744 mmHg 35%
    19:00 +33°C° 0,3 mm 3 m/s 744 mmHg 41%
    20:00 +32°C° 0,3 mm 4 m/s 745 mmHg 47%
    21:00 +29°C° 0,3 mm 5 m/s 745 mmHg 53%
    22:00 +29°C° 0,3 mm 4 m/s 745 mmHg 56%
    23:00 +28°C° 0,3 mm 3 m/s 745 mmHg 60%

    19 Decembrie, Marţi

    Timp Temperatura Precipitaţii Vânt Presiune Umiditate
    00:00 +27°C° 0,3 mm 3 m/s 745 mmHg 64%
    01:00 +26°C° 1 mm 3 m/s 745 mmHg 69%
    02:00 +26°C° 1 mm 4 m/s 745 mmHg 74%
    03:00 +25°C° 1 mm 5 m/s 745 mmHg 79%
    04:00 +25°C° 0,7 mm 5 m/s 746 mmHg 76%
    05:00 +23°C° 0,7 mm 5 m/s 747 mmHg 73%
    06:00 +23°C° 0,7 mm 6 m/s 747 mmHg 69%
    07:00 +24°C° 0 mm 6 m/s 747 mmHg 59%
    08:00 +26°C° 0 mm 7 m/s 748 mmHg 49%
    09:00 +27°C° 0 mm 8 m/s 748 mmHg 39%
    10:00 +28°C° 0 mm 8 m/s 748 mmHg 37%
    11:00 +28°C° 0 mm 8 m/s 748 mmHg 35%
    12:00 +28°C° 0 mm 7 m/s 749 mmHg 32%
    13:00 +28°C° 0 mm 7 m/s 748 mmHg 33%
    14:00 +28°C° 0 mm 7 m/s 748 mmHg 34%
    15:00 +28°C° 0 mm 7 m/s 748 mmHg 36%
    16:00 +27°C° 0 mm 7 m/s 749 mmHg 39%
    17:00 +26°C° 0 mm 7 m/s 749 mmHg 43%
    18:00 +24°C° 0 mm 6 m/s 750 mmHg 46%
    19:00 +23°C° 0 mm 6 m/s 750 mmHg 52%
    20:00 +22°C° 0 mm 6 m/s 751 mmHg 58%
    21:00 +21°C° 0 mm 5 m/s 752 mmHg 64%
    22:00 +21°C° 0 mm 5 m/s 752 mmHg 65%
    23:00 +20°C° 0 mm 5 m/s 752 mmHg 67%

    20 Decembrie, Miercuri

    Timp Temperatura Precipitaţii Vânt Presiune Umiditate
    00:00 +20°C° 0 mm 5 m/s 752 mmHg 68%
    01:00 +20°C° 0 mm 5 m/s 752 mmHg 70%
    02:00 +19°C° 0 mm 5 m/s 753 mmHg 73%
    03:00 +19°C° 0 mm 5 m/s 753 mmHg 75%
    04:00 +19°C° 0,1 mm 6 m/s 754 mmHg 74%
    05:00 +19°C° 0,1 mm 6 m/s 755 mmHg 74%
    06:00 +18°C° 0,1 mm 7 m/s 756 mmHg 73%
    07:00 +20°C° 0 mm 7 m/s 756 mmHg 67%
    08:00 +20°C° 0 mm 6 m/s 757 mmHg 62%
    09:00 +20°C° 0 mm 6 m/s 758 mmHg 56%
    10:00 +21°C° 0 mm 6 m/s 758 mmHg 53%
    11:00 +22°C° 0 mm 6 m/s 758 mmHg 50%
    12:00 +23°C° 0 mm 5 m/s 758 mmHg 47%
    13:00 +23°C° 0 mm 5 m/s 758 mmHg 46%
    14:00 +23°C° 0 mm 5 m/s 758 mmHg 45%
    15:00 +23°C° 0 mm 5 m/s 758 mmHg 44%
    16:00 +22°C° 0 mm 5 m/s 759 mmHg 47%
    17:00 +22°C° 0 mm 5 m/s 759 mmHg 50%
    18:00 +21°C° 0 mm 4 m/s 760 mmHg 53%
    19:00 +20°C° 0 mm 4 m/s 760 mmHg 56%
    20:00 +19°C° 0 mm 4 m/s 761 mmHg 60%
    21:00 +19°C° 0 mm 3 m/s 761 mmHg 63%
    22:00 +18°C° 0 mm 3 m/s 761 mmHg 66%
    23:00 +18°C° 0 mm 3 m/s 761 mmHg 68%
    Arată mai mult